Volver al catálogo

COSMOS 1481 DEB

LostHEO
NORAD 33531·DEBRIS·🇷🇺 Russia

Lanzado Jul 8, 1983 desde Plesetsk Cosmodrome

Loading…

Próximos Pases (próximas 24 horas)

TLE

ObsoletoSource: Space-Track

Época: Mar 21, 2008, 06:36 UTC

1 33531U 83070K   08081.27506578 -.00000372  00000-0  10000-3 0  9997
2 33531  69.2652 357.9873 6329024 106.3733 328.5400  2.03429651 14906

Sigue COSMOS 1481 DEB en tiempo real con AllMySat

Download on the App Store